RYR17ZZ EPKK-LDDU

Flight info

Callsign RYR17ZZ
Flight time 1h 18m
Altitude 37000
Route BABKO DCT NIDOK DCT PATAK DCT BAREB DCT NETKO
Aircraft B738/M-SDE3FGILRWY/SB1

Departure

Time 2026-05-05 13:46
Airport Kraków John Paul II International Airport (EPKK)

Arrival

Time 2026-05-05 15:04
Airport Dubrovnik Ruđer Bošković Airport (LDDU)
Time Latitude Longitude Altitude Speed Heading
2026-05-05 13:05 50.07288 19.79888 799 ft 0 kts 168°
2026-05-05 13:36 50.07299 19.79884 799 ft 4 kts 168°
2026-05-05 13:36 50.07325 19.79875 799 ft 4 kts 168°
2026-05-05 13:36 50.07347 19.79868 799 ft 4 kts 166°
2026-05-05 13:37 50.07367 19.79851 799 ft 4 kts 114°
2026-05-05 13:37 50.07369 19.79816 799 ft 4 kts 77°
2026-05-05 13:37 50.07367 19.79801 799 ft 1 kts 78°
2026-05-05 13:41 50.07368 19.79809 799 ft 2 kts 78°
2026-05-05 13:41 50.07375 19.79859 799 ft 7 kts 78°
2026-05-05 13:41 50.07391 19.79975 799 ft 13 kts 77°
2026-05-05 13:41 50.07411 19.80111 799 ft 13 kts 77°
2026-05-05 13:42 50.07429 19.80243 799 ft 12 kts 78°
2026-05-05 13:42 50.07433 19.80268 799 ft 0 kts 78°
2026-05-05 13:42 50.07434 19.80276 799 ft 2 kts 78°
2026-05-05 13:42 50.07440 19.80321 799 ft 7 kts 78°
2026-05-05 13:43 50.07481 19.80383 799 ft 10 kts 20°
2026-05-05 13:43 50.07555 19.80418 799 ft 11 kts 15°
2026-05-05 13:43 50.07632 19.80408 799 ft 11 kts 347°
2026-05-05 13:43 50.07706 19.80383 799 ft 11 kts 348°
2026-05-05 13:44 50.07778 19.80359 799 ft 10 kts 348°
2026-05-05 13:44 50.07848 19.80336 799 ft 10 kts 348°
2026-05-05 13:44 50.07915 19.80312 799 ft 10 kts 347°
2026-05-05 13:44 50.07969 19.80294 799 ft 7 kts 348°
2026-05-05 13:45 50.08009 19.80253 799 ft 7 kts 294°
2026-05-05 13:45 50.08009 19.80178 799 ft 7 kts 259°
2026-05-05 13:45 50.07989 19.80031 800 ft 38 kts 258°
2026-05-05 13:45 50.07879 19.79245 799 ft 108 kts 257°
2026-05-05 13:46 50.07677 19.77799 814 ft 163 kts 258°
2026-05-05 13:46 50.07429 19.76066 1469 ft 162 kts 259°
2026-05-05 13:46 50.07204 19.74382 2324 ft 156 kts 255°
2026-05-05 13:46 50.06961 19.72702 3023 ft 162 kts 255°
2026-05-05 13:47 50.06704 19.70990 3780 ft 163 kts 255°
2026-05-05 13:47 50.06449 19.69236 4348 ft 175 kts 255°
2026-05-05 13:47 50.06095 19.67261 4594 ft 201 kts 242°
2026-05-05 13:47 50.05143 19.65552 4800 ft 222 kts 215°
2026-05-05 13:48 50.03657 19.64682 5143 ft 240 kts 187°
2026-05-05 13:48 50.01911 19.64954 5386 ft 264 kts 170°
2026-05-05 13:48 50.00098 19.65597 6180 ft 268 kts 170°
2026-05-05 13:48 49.98270 19.66247 6976 ft 272 kts 170°
2026-05-05 13:49 49.96415 19.66904 7787 ft 274 kts 170°
2026-05-05 13:49 49.94580 19.67540 8629 ft 274 kts 171°
2026-05-05 13:49 49.92703 19.68180 9387 ft 279 kts 171°
2026-05-05 13:49 49.90765 19.68834 10129 ft 283 kts 171°
2026-05-05 13:50 49.88812 19.69415 10471 ft 300 kts 179°
2026-05-05 13:50 49.86714 19.68902 10662 ft 316 kts 204°
2026-05-05 13:50 49.84762 19.67352 11225 ft 321 kts 210°
2026-05-05 13:50 49.82833 19.65652 12020 ft 322 kts 211°
2026-05-05 13:51 49.80868 19.63905 12640 ft 329 kts 211°
2026-05-05 13:51 49.78873 19.62145 13455 ft 331 kts 210°
2026-05-05 13:51 49.76855 19.60379 14212 ft 335 kts 210°
2026-05-05 13:51 49.74817 19.58609 14981 ft 337 kts 210°
2026-05-05 13:52 49.72758 19.56828 15659 ft 342 kts 210°
2026-05-05 13:52 49.70671 19.55029 16377 ft 345 kts 210°
2026-05-05 13:52 49.68558 19.53212 17104 ft 349 kts 210°
2026-05-05 13:52 49.66422 19.51377 17760 ft 355 kts 210°
2026-05-05 13:53 49.64260 19.49522 18501 ft 357 kts 210°
2026-05-05 13:53 49.62080 19.47655 19119 ft 359 kts 210°
2026-05-05 13:53 49.59889 19.45764 19679 ft 364 kts 211°
2026-05-05 13:53 49.57674 19.43802 20235 ft 369 kts 212°
2026-05-05 13:54 49.56198 19.42482 20621 ft 372 kts 212°
2026-05-05 13:54 49.53954 19.40472 21254 ft 374 kts 211°
2026-05-05 13:54 49.51686 19.38450 21813 ft 378 kts 212°
2026-05-05 13:54 49.49401 19.36416 22347 ft 383 kts 212°
2026-05-05 13:55 49.47082 19.34355 22896 ft 387 kts 211°
2026-05-05 13:55 49.44737 19.32276 23410 ft 391 kts 212°
2026-05-05 13:55 49.42375 19.30185 23937 ft 393 kts 211°
2026-05-05 13:55 49.39995 19.28081 24412 ft 396 kts 212°
2026-05-05 13:56 49.37595 19.25961 24813 ft 400 kts 212°
2026-05-05 13:56 49.35166 19.23819 25166 ft 405 kts 211°
2026-05-05 13:56 49.32722 19.21667 25691 ft 406 kts 212°
2026-05-05 13:56 49.30265 19.19506 26117 ft 409 kts 212°
2026-05-05 13:57 49.27784 19.17325 26469 ft 413 kts 212°
2026-05-05 13:57 49.25281 19.15129 26845 ft 417 kts 211°
2026-05-05 13:57 49.22751 19.12916 27250 ft 420 kts 212°
2026-05-05 13:57 49.20210 19.10690 27670 ft 422 kts 212°
2026-05-05 13:58 49.17650 19.08448 28017 ft 426 kts 211°
2026-05-05 13:58 49.15064 19.06187 28374 ft 430 kts 212°
2026-05-05 13:58 49.12460 19.03916 28759 ft 432 kts 212°
2026-05-05 13:58 49.09845 19.01636 29135 ft 435 kts 212°
2026-05-05 13:59 49.04551 18.97028 29752 ft 442 kts 211°
2026-05-05 13:59 49.01871 18.94703 30096 ft 444 kts 212°
2026-05-05 14:00 48.96478 18.90028 30716 ft 448 kts 211°
2026-05-05 14:00 48.93768 18.87684 31110 ft 448 kts 212°
2026-05-05 14:00 48.91063 18.85363 31617 ft 445 kts 209°
2026-05-05 14:00 48.88178 18.83690 32057 ft 447 kts 194°
2026-05-05 14:01 48.85077 18.83228 32450 ft 450 kts 180°
2026-05-05 14:01 48.81978 18.83915 32781 ft 453 kts 167°
2026-05-05 14:01 48.78927 18.85150 33137 ft 454 kts 166°
2026-05-05 14:01 48.75886 18.86400 33613 ft 451 kts 166°
2026-05-05 14:02 48.72871 18.87628 34160 ft 447 kts 167°
2026-05-05 14:02 48.69861 18.88833 34418 ft 449 kts 167°
2026-05-05 14:02 48.66832 18.90023 34624 ft 451 kts 167°
2026-05-05 14:02 48.63790 18.91202 34898 ft 451 kts 167°
2026-05-05 14:03 48.60754 18.92372 35212 ft 450 kts 167°
2026-05-05 14:03 48.57763 18.93519 35607 ft 447 kts 167°
2026-05-05 14:03 48.54752 18.94673 35893 ft 447 kts 167°
2026-05-05 14:03 48.51730 18.95829 36033 ft 450 kts 167°
2026-05-05 14:04 48.48694 18.96991 36304 ft 449 kts 167°
2026-05-05 14:04 48.45675 18.98145 36680 ft 446 kts 167°
2026-05-05 14:04 48.42671 18.99292 36994 ft 445 kts 167°
2026-05-05 14:04 48.39659 19.00441 37022 ft 449 kts 167°
2026-05-05 14:05 48.33574 19.02758 37027 ft 451 kts 167°
2026-05-05 14:05 48.27529 19.05055 37032 ft 445 kts 167°
2026-05-05 14:06 48.21545 19.07323 37038 ft 441 kts 167°
2026-05-05 14:06 48.15596 19.09572 37037 ft 442 kts 167°
2026-05-05 14:07 48.09563 19.11719 37029 ft 449 kts 173°
2026-05-05 14:07 48.03323 19.11605 37029 ft 451 kts 192°
2026-05-05 14:08 47.97174 19.09619 37031 ft 452 kts 194°
2026-05-05 14:08 47.91106 19.07581 37022 ft 443 kts 194°
2026-05-05 14:09 47.85091 19.05616 37040 ft 443 kts 194°
2026-05-05 14:09 47.79053 19.03685 37039 ft 444 kts 193°
2026-05-05 14:10 47.73033 19.01778 37038 ft 446 kts 194°
2026-05-05 14:10 47.67021 18.99879 37040 ft 447 kts 193°
2026-05-05 14:11 47.60950 18.97966 37053 ft 447 kts 193°
2026-05-05 14:11 47.54857 18.96049 37038 ft 448 kts 194°
2026-05-05 14:12 47.48749 18.94132 37045 ft 449 kts 193°
2026-05-05 14:12 47.42642 18.92219 37037 ft 449 kts 193°
2026-05-05 14:13 47.36538 18.90312 37039 ft 448 kts 193°
2026-05-05 14:13 47.30438 18.88411 37035 ft 448 kts 193°
2026-05-05 14:14 47.24349 18.86517 37037 ft 447 kts 193°
2026-05-05 14:14 47.18267 18.84631 37036 ft 446 kts 193°
2026-05-05 14:15 47.12195 18.82751 37035 ft 446 kts 193°
2026-05-05 14:15 47.06130 18.80879 37033 ft 445 kts 193°
2026-05-05 14:16 47.00108 18.79024 37035 ft 445 kts 193°
2026-05-05 14:16 46.94050 18.77162 37034 ft 445 kts 193°
2026-05-05 14:17 46.87987 18.75302 37039 ft 445 kts 193°
2026-05-05 14:17 46.81921 18.73447 37038 ft 446 kts 193°
2026-05-05 14:18 46.75843 18.71591 37041 ft 447 kts 193°
2026-05-05 14:18 46.69755 18.69737 37039 ft 447 kts 193°
2026-05-05 14:19 46.63656 18.67884 37035 ft 448 kts 193°
2026-05-05 14:19 46.57550 18.66033 37040 ft 449 kts 193°
2026-05-05 14:20 46.51430 18.64183 37038 ft 449 kts 193°
2026-05-05 14:20 46.45317 18.62338 37033 ft 450 kts 193°
2026-05-05 14:21 46.39188 18.60493 37043 ft 450 kts 193°
2026-05-05 14:21 46.33057 18.58652 37044 ft 450 kts 193°
2026-05-05 14:22 46.26925 18.56814 37033 ft 450 kts 193°
2026-05-05 14:22 46.20792 18.54981 37042 ft 450 kts 193°
2026-05-05 14:23 46.14663 18.53152 37047 ft 449 kts 193°
2026-05-05 14:23 46.08543 18.51331 37042 ft 449 kts 193°
2026-05-05 14:24 46.02429 18.49515 37047 ft 448 kts 193°
2026-05-05 14:24 45.96322 18.47706 37047 ft 448 kts 193°
2026-05-05 14:25 45.90213 18.45899 37051 ft 448 kts 193°
2026-05-05 14:25 45.84109 18.44099 37042 ft 448 kts 193°
2026-05-05 14:26 45.78004 18.42301 37046 ft 448 kts 193°
2026-05-05 14:26 45.71897 18.40511 37043 ft 448 kts 193°
2026-05-05 14:27 45.65783 18.38735 37035 ft 448 kts 193°
2026-05-05 14:27 45.59666 18.36965 37044 ft 449 kts 193°
2026-05-05 14:28 45.53541 18.35194 37040 ft 449 kts 193°
2026-05-05 14:28 45.47411 18.33424 37039 ft 450 kts 193°
2026-05-05 14:29 45.41276 18.31657 37044 ft 450 kts 193°
2026-05-05 14:29 45.35138 18.29892 37041 ft 450 kts 193°
2026-05-05 14:30 45.28992 18.28130 37042 ft 451 kts 193°
2026-05-05 14:30 45.22886 18.26383 37041 ft 451 kts 193°
2026-05-05 14:31 45.16690 18.24613 37038 ft 451 kts 193°
2026-05-05 14:31 45.10566 18.22868 37131 ft 455 kts 193°
2026-05-05 14:32 45.04325 18.21093 37063 ft 456 kts 193°
2026-05-05 14:32 44.98194 18.19357 37041 ft 445 kts 193°
2026-05-05 14:33 44.92127 18.17641 37042 ft 444 kts 193°
2026-05-05 14:33 44.86060 18.15926 37036 ft 445 kts 193°
2026-05-05 14:34 44.79980 18.14212 37040 ft 446 kts 193°
2026-05-05 14:34 44.74008 18.12535 36994 ft 425 kts 193°
2026-05-05 14:35 44.71100 18.11719 36324 ft 429 kts 193°
2026-05-05 14:35 44.68140 18.10887 35517 ft 438 kts 193°
2026-05-05 14:35 44.65146 18.10046 34978 ft 439 kts 193°
2026-05-05 14:35 44.62151 18.09207 34495 ft 439 kts 193°
2026-05-05 14:36 44.59161 18.08371 34105 ft 437 kts 193°
2026-05-05 14:36 44.56185 18.07541 33644 ft 435 kts 193°
2026-05-05 14:36 44.53229 18.06717 33236 ft 432 kts 193°
2026-05-05 14:36 44.50294 18.05900 32833 ft 428 kts 193°
2026-05-05 14:37 44.47384 18.05090 32459 ft 425 kts 193°
2026-05-05 14:37 44.44494 18.04286 32079 ft 422 kts 193°
2026-05-05 14:37 44.41626 18.03489 31714 ft 419 kts 193°
2026-05-05 14:37 44.38772 18.02697 31348 ft 416 kts 193°
2026-05-05 14:38 44.36090 18.01954 31008 ft 414 kts 193°
2026-05-05 14:38 44.33363 18.01199 30663 ft 412 kts 193°
2026-05-05 14:38 44.30562 18.00424 30299 ft 410 kts 193°
2026-05-05 14:38 44.27774 17.99652 29897 ft 408 kts 193°
2026-05-05 14:39 44.24995 17.98883 29482 ft 405 kts 193°
2026-05-05 14:39 44.22281 17.98134 29072 ft 401 kts 193°
2026-05-05 14:39 44.19557 17.97383 28709 ft 398 kts 193°
2026-05-05 14:39 44.16852 17.96638 28322 ft 395 kts 193°
2026-05-05 14:40 44.14165 17.95898 27944 ft 392 kts 193°
2026-05-05 14:40 44.11497 17.95164 27571 ft 390 kts 193°
2026-05-05 14:40 44.08845 17.94435 27196 ft 387 kts 193°
2026-05-05 14:40 44.06213 17.93713 26835 ft 385 kts 193°
2026-05-05 14:41 44.04442 17.93227 26588 ft 383 kts 193°
2026-05-05 14:41 44.01865 17.92521 26222 ft 381 kts 193°
2026-05-05 14:41 43.99231 17.91799 25848 ft 380 kts 193°
2026-05-05 14:41 43.96678 17.91101 25495 ft 378 kts 192°
2026-05-05 14:42 43.94069 17.90387 25119 ft 377 kts 193°
2026-05-05 14:42 43.91537 17.89696 24762 ft 376 kts 193°
2026-05-05 14:42 43.88970 17.88995 24372 ft 375 kts 192°
2026-05-05 14:42 43.86414 17.88299 24003 ft 374 kts 192°
2026-05-05 14:43 43.83866 17.87604 23633 ft 373 kts 192°
2026-05-05 14:43 43.81325 17.86912 23219 ft 371 kts 192°
2026-05-05 14:43 43.78799 17.86225 22833 ft 369 kts 192°
2026-05-05 14:43 43.76284 17.85542 22439 ft 367 kts 192°
2026-05-05 14:44 43.73786 17.84864 22086 ft 365 kts 192°
2026-05-05 14:44 43.71301 17.84190 21717 ft 363 kts 192°
2026-05-05 14:44 43.68833 17.83522 21362 ft 360 kts 192°
2026-05-05 14:44 43.66379 17.82857 21017 ft 359 kts 192°
2026-05-05 14:45 43.63937 17.82196 20654 ft 357 kts 192°
2026-05-05 14:45 43.61508 17.81540 20293 ft 355 kts 192°
2026-05-05 14:45 43.59093 17.80887 19949 ft 353 kts 192°
2026-05-05 14:45 43.56685 17.80238 19574 ft 352 kts 191°
2026-05-05 14:46 43.54287 17.79592 19224 ft 350 kts 191°
2026-05-05 14:46 43.51898 17.78947 18882 ft 349 kts 191°
2026-05-05 14:46 43.49517 17.78306 18519 ft 348 kts 191°
2026-05-05 14:46 43.47147 17.77668 18136 ft 346 kts 191°
2026-05-05 14:47 43.44800 17.77037 17748 ft 341 kts 191°
2026-05-05 14:47 43.42494 17.76418 17402 ft 334 kts 191°
2026-05-05 14:47 43.40228 17.75810 17070 ft 331 kts 191°
2026-05-05 14:47 43.37972 17.75205 16739 ft 329 kts 191°
2026-05-05 14:48 43.35727 17.74603 16395 ft 328 kts 191°
2026-05-05 14:48 43.33494 17.74005 16085 ft 326 kts 191°
2026-05-05 14:48 43.31275 17.73411 15749 ft 324 kts 191°
2026-05-05 14:48 43.29066 17.72820 15424 ft 323 kts 191°
2026-05-05 14:49 43.26869 17.72233 15091 ft 319 kts 191°
2026-05-05 14:49 43.24704 17.71655 14761 ft 315 kts 190°
2026-05-05 14:49 43.22600 17.71094 14438 ft 311 kts 191°
2026-05-05 14:49 43.20491 17.70532 14124 ft 307 kts 190°
2026-05-05 14:50 43.18374 17.69967 13775 ft 304 kts 191°
2026-05-05 14:50 43.16330 17.69423 13447 ft 303 kts 191°
2026-05-05 14:50 43.14266 17.68874 13122 ft 302 kts 190°
2026-05-05 14:50 43.12208 17.68327 12795 ft 301 kts 190°
2026-05-05 14:51 43.10159 17.67782 12479 ft 300 kts 190°
2026-05-05 14:51 43.08108 17.67237 12145 ft 300 kts 190°
2026-05-05 14:51 43.06061 17.66695 11827 ft 299 kts 190°
2026-05-05 14:51 43.04038 17.66046 11496 ft 299 kts 202°
2026-05-05 14:52 43.02242 17.64621 11183 ft 298 kts 213°
2026-05-05 14:52 43.00511 17.63055 10841 ft 299 kts 213°
2026-05-05 14:52 42.98756 17.61496 10433 ft 303 kts 212°
2026-05-05 14:52 42.96993 17.59955 10141 ft 298 kts 212°
2026-05-05 14:53 42.95280 17.58467 9994 ft 287 kts 212°
2026-05-05 14:53 42.93608 17.57019 9741 ft 281 kts 212°
2026-05-05 14:53 42.91864 17.55966 9594 ft 271 kts 187°
2026-05-05 14:53 42.90037 17.56139 9426 ft 263 kts 161°
2026-05-05 14:54 42.88432 17.57262 9188 ft 258 kts 140°
2026-05-05 14:54 42.87136 17.58928 8945 ft 255 kts 132°
2026-05-05 14:54 42.85906 17.60669 8682 ft 254 kts 132°
2026-05-05 14:54 42.84686 17.62408 8438 ft 253 kts 133°
2026-05-05 14:55 42.83468 17.64132 8180 ft 252 kts 133°
2026-05-05 14:55 42.82246 17.65849 7939 ft 252 kts 133°
2026-05-05 14:55 42.81085 17.67468 7700 ft 251 kts 133°
2026-05-05 14:55 42.79865 17.69165 7447 ft 250 kts 133°
2026-05-05 14:56 42.78647 17.70856 7201 ft 250 kts 133°
2026-05-05 14:56 42.77452 17.72564 6951 ft 249 kts 127°
2026-05-05 14:56 42.76583 17.74583 6711 ft 247 kts 116°
2026-05-05 14:56 42.75817 17.76671 6446 ft 247 kts 116°
2026-05-05 14:57 42.75033 17.78746 6183 ft 247 kts 117°
2026-05-05 14:57 42.74237 17.80813 5920 ft 246 kts 118°
2026-05-05 14:57 42.73463 17.82891 5656 ft 246 kts 116°
2026-05-05 14:57 42.72714 17.84976 5404 ft 245 kts 117°
2026-05-05 14:58 42.71933 17.87034 5157 ft 245 kts 118°
2026-05-05 14:58 42.71126 17.89084 5046 ft 246 kts 119°
2026-05-05 14:58 42.70314 17.91125 4913 ft 246 kts 119°
2026-05-05 14:58 42.69490 17.93192 4618 ft 247 kts 119°
2026-05-05 14:59 42.68681 17.95221 4474 ft 238 kts 119°
2026-05-05 14:59 42.67920 17.97132 4355 ft 222 kts 119°
2026-05-05 14:59 42.67202 17.98934 4216 ft 212 kts 119°
2026-05-05 14:59 42.66509 18.00674 4038 ft 206 kts 119°
2026-05-05 15:00 42.65832 18.02376 4006 ft 203 kts 119°
2026-05-05 15:00 42.65387 18.03495 3960 ft 202 kts 119°
2026-05-05 15:00 42.64492 18.05746 3643 ft 202 kts 119°
2026-05-05 15:00 42.63832 18.07409 3401 ft 199 kts 119°
2026-05-05 15:01 42.63179 18.09052 3136 ft 196 kts 119°
2026-05-05 15:01 42.62540 18.10661 2860 ft 191 kts 119°
2026-05-05 15:01 42.61921 18.12222 2611 ft 185 kts 119°
2026-05-05 15:01 42.61323 18.13728 2363 ft 176 kts 118°
2026-05-05 15:02 42.60761 18.15145 2152 ft 165 kts 119°
2026-05-05 15:02 42.60239 18.16464 1942 ft 157 kts 118°
2026-05-05 15:02 42.59723 18.17767 1732 ft 157 kts 118°
2026-05-05 15:02 42.59203 18.19079 1512 ft 158 kts 118°
2026-05-05 15:03 42.58677 18.20406 1298 ft 162 kts 119°
2026-05-05 15:03 42.58146 18.21743 1158 ft 158 kts 118°
2026-05-05 15:03 42.57634 18.23044 910 ft 155 kts 119°
2026-05-05 15:03 42.57147 18.24297 681 ft 147 kts 119°
2026-05-05 15:04 42.56677 18.25462 535 ft 132 kts 118°
2026-05-05 15:04 42.56298 18.26416 531 ft 94 kts 118°
2026-05-05 15:04 42.56044 18.27054 533 ft 63 kts 118°
2026-05-05 15:04 42.55923 18.27311 531 ft 16 kts 151°
2026-05-05 15:05 42.55786 18.27333 533 ft 9 kts 209°
2026-05-05 15:05 42.55776 18.27261 533 ft 9 kts 295°
2026-05-05 15:05 42.55804 18.27191 533 ft 8 kts 299°
2026-05-05 15:06 42.55832 18.27122 533 ft 9 kts 298°
2026-05-05 15:06 42.55863 18.27042 533 ft 11 kts 298°
2026-05-05 15:06 42.55906 18.26934 533 ft 15 kts 297°
2026-05-05 15:06 42.55959 18.26799 533 ft 18 kts 298°
2026-05-05 15:07 42.56021 18.26643 533 ft 20 kts 298°
2026-05-05 15:07 42.56089 18.26472 533 ft 21 kts 298°
2026-05-05 15:07 42.56153 18.26311 533 ft 20 kts 298°
2026-05-05 15:07 42.56219 18.26145 533 ft 18 kts 298°
2026-05-05 15:08 42.56269 18.26018 533 ft 11 kts 298°
2026-05-05 15:08 42.56282 18.25985 533 ft 0 kts 298°
2026-05-05 15:08 42.56282 18.25986 533 ft 2 kts 298°
2026-05-05 15:09 42.56271 18.26014 533 ft 2 kts 298°
2026-05-05 15:09 42.56271 18.26013 533 ft 0 kts 296°
2026-05-05 15:09 42.56272 18.25999 533 ft 3 kts 269°
2026-05-05 15:10 42.56253 18.25964 533 ft 5 kts 217°
2026-05-05 15:10 42.56233 18.25949 533 ft 2 kts 207°
2026-05-05 15:10 42.56231 18.25948 533 ft 0 kts 207°